This demonstration page uses our WeatherBlox Daily Observations layout. Learn more.

Hourly Observations for February 11, 2017

Temp ( °F °C ) Dew Point ( °F °C ) Humidity (%) Winds ( mph kmh ) Pressure ( in mb ) Visibility ( mi km ) Precip ( " mm )
12:15 am 00:15 Clear 44 6.7 33 0.8 66 66 NNE 12 19 29.83 1010 10 16.0934 0 0
12:35 am 00:35 Clear 42 5.4 32 0 68 68 NE 12 19 29.83 1010 10 16.0934 0 0
12:55 am 00:55 Clear 42 5.8 33 0.6 70 70 NNE 10 17 29.83 1010 10 16.0934 0 0
1:15 am 01:15 Clear 42 5.4 33 0.7 72 72 NNE 9 15 29.83 1010 10 16.0934 0 0
1:35 am 01:35 Clear 41 4.9 33 0.4 73 73 NNE 8 13 29.83 1010 10 16.0934 0 0
1:55 am 01:55 Clear 39 3.7 32 0 77 77 NNE 8 13 29.85 1011 10 16.0934 0 0
2:15 am 02:15 Clear 38 3.2 32 0 80 80 N 8 13 29.85 1011 10 16.0934 0 0
2:35 am 02:35 Clear 38 3.6 33 0.4 80 80 N 8 13 29.85 1011 10 16.0934 0 0
2:55 am 02:55 Clear 38 3.1 32 0.2 81 81 NNE 8 13 29.85 1011 10 16.0934 0 0
3:15 am 03:15 Clear 38 3.2 33 0.6 83 83 N 9 15 29.85 1011 10 16.0934 0 0
3:35 am 03:35 Clear 37 3 33 0.3 83 83 N 8 13 29.83 1010 10 16.0934 0 0
3:55 am 03:55 Clear 38 3.1 33 0.6 84 84 N 10 17 29.85 1011 10 16.0934 0 0
4:15 am 04:15 Clear 37 3 33 0.5 84 84 N 10 17 29.85 1011 10 16.0934 0 0
4:35 am 04:35 Clear 38 3.5 34 0.9 83 83 N 10 17 29.85 1011 10 16.0934 0 0
4:55 am 04:55 Clear 38 3.6 33 0.7 82 82 N 13 20 29.85 1011 10 16.0934 0 0
5:15 am 05:15 Clear 38 3.5 33 0.6 82 82 N 10 17 29.85 1011 10 16.0934 0 0
5:35 am 05:35 Clear 37 3 32 0.2 82 82 N 8 13 29.85 1011 10 16.0934 0 0
5:55 am 05:55 Clear 36 2.2 32 0 86 86 N 9 15 29.85 1011 10 16.0934 0 0
6:15 am 06:15 Clear 36 2.1 32 0 86 86 N 9 15 29.85 1011 10 16.0934 0 0
6:35 am 06:35 Clear 36 2 32 0 87 87 N 7 11 29.85 1011 10 16.0934 0 0
6:55 am 06:55 Clear 35 1.7 32 0 89 89 N 5 7 29.85 1011 10 16.0934 0 0
7:15 am 07:15 Clear 34 1.2 31 -0.4 89 89 N 8 13 29.85 1011 10 16.0934 0 0
7:35 am 07:35 Clear 35 1.7 32 0 89 89 NNE 7 11 29.88 1012 10 16.0934 0 0
7:55 am 07:55 Sunny 36 2.3 32 0 85 85 N 6 9 29.88 1012 10 16.0934 0 0
8:15 am 08:15 Sunny 36 2.2 32 0.1 86 86 N 5 7 29.91 1013 10 16.0934 0 0
8:35 am 08:35 Sunny 37 2.9 33 0.5 84 84 N 6 9 29.91 1013 10 16.0934 0 0
8:55 am 08:55 Sunny 39 3.8 34 1 82 82 N 6 9 29.91 1013 10 16.0934 0 0
9:15 am 09:15 Sunny 41 5.1 34 1.1 76 76 N 7 11 29.88 1012 10 16.0934 0 0
9:35 am 09:35 Sunny 42 5.8 34 1.1 72 72 NNE 10 17 29.88 1012 10 16.0934 0 0
9:55 am 09:55 Sunny 45 7.1 34 1.1 66 66 ENE 10 17 29.85 1011 10 16.0934 0 0
10:15 am 10:15 Sunny 48 8.7 34 0.9 58 58 ENE 13 20 29.85 1011 10 16.0934 0 0
10:35 am 10:35 Sunny 48 9.1 34 1 57 57 NE 9 15 29.85 1011 10 16.0934 0 0
10:55 am 10:55 Sunny 50 10 34 0.9 54 54 NNE 6 9 29.88 1012 10 16.0934 0 0
11:15 am 11:15 Sunny 50 10.1 33 0.7 52 52 ENE 8 13 29.88 1012 10 16.0934 0 0
11:35 am 11:35 Sunny 52 11 34 0.9 50 50 NE 7 11 29.88 1012 10 16.0934 0 0
11:55 am 11:55 Partly Cloudy 54 12 34 1 47 47 NNE 6 9 29.85 1011 10 16.0934 0 0
12:15 pm 12:15 Sunny 54 12.2 33 0.6 45 45 NNE 7 11 29.85 1011 10 16.0934 0 0
12:35 pm 12:35 Sunny 54 12.4 33 0.6 45 45 NE 8 13 29.83 1010 10 16.0934 0 0
12:55 pm 12:55 Sunny 55 12.9 33 0.6 43 43 NNE 6 9 29.83 1010 10 16.0934 0 0
1:15 pm 13:15 Sunny 57 13.7 33 0.7 41 41 NE 7 11 29.83 1010 10 16.0934 0 0
1:35 pm 13:35 Sunny 57 13.7 33 0.5 41 41 NE 3 6 29.83 1010 10 16.0934 0 0
1:55 pm 13:55 Sunny 57 13.9 33 0.6 41 41 NNE 5 7 29.83 1010 10 16.0934 0 0
2:15 pm 14:15 Sunny 59 14.8 33 0.4 38 38 NNE 5 7 29.8 1009 10 16.0934 0 0
2:35 pm 14:35 Sunny 59 15.1 32 0.1 36 36 NNE 8 13 29.8 1009 10 16.0934 0 0
2:55 pm 14:55 Sunny 59 15.1 34 1.3 39 39 N 12 19 29.8 1009 10 16.0934 0 0
3:15 pm 15:15 Sunny 56 13.4 34 1.3 44 44 N 10 17 29.85 1011 10 16.0934 0 0
3:35 pm 15:35 Sunny 55 13 34 1.2 45 45 N 10 17 29.85 1011 10 16.0934 0 0
3:55 pm 15:55 Sunny 54 12 34 1.1 48 48 N 12 19 29.88 1012 10 16.0934 0 0
4:15 pm 16:15 Sunny 53 11.6 34 1 48 48 N 12 19 29.91 1013 10 16.0934 0 0
4:35 pm 16:35 Sunny 54 12.1 34 1 47 47 N 10 17 29.91 1013 10 16.0934 0 0
4:55 pm 16:55 Sunny 51 10.5 34 1 52 52 N 10 17 29.94 1014 10 16.0934 0 0
5:15 pm 17:15 Sunny 50 10.2 34 1 53 53 N 7 11 29.94 1014 10 16.0934 0 0
5:35 pm 17:35 Sunny 49 9.6 34 0.9 55 55 N 8 13 29.97 1015 10 16.0934 0 0
5:55 pm 17:55 Sunny 48 9 33 0.8 57 57 N 9 15 29.97 1015 10 16.0934 0 0
6:15 pm 18:15 Partly Cloudy 47 8.4 34 1 60 60 N 8 13 30 1016 10 16.0934 0 0
6:35 pm 18:35 Clear 46 7.9 34 1 62 62 N 8 13 30.03 1017 10 16.0934 0 0
6:55 pm 18:55 Clear 45 7.1 33 0.7 64 64 N 8 13 30.03 1017 10 16.0934 0 0
7:15 pm 19:15 Clear 44 6.5 33 0.7 67 67 N 8 13 30.03 1017 10 16.0934 0 0
7:35 pm 19:35 Clear 44 6.8 33 0.7 65 65 N 9 15 30.06 1018 10 16.0934 0 0
7:55 pm 19:55 Partly Cloudy 44 6.5 33 0.5 66 66 N 6 9 30.09 1019 10 16.0934 0 0
8:15 pm 20:15 Mostly Cloudy 44 6.4 33 0.5 66 66 N 9 15 30.12 1020 10 16.0934 0 0
8:35 pm 20:35 Mostly Cloudy 43 6 33 0.3 67 67 N 7 11 30.12 1020 10 16.0934 0 0
8:55 pm 20:55 Partly Cloudy 42 5.5 32 0.2 69 69 N 5 7 30.12 1020 10 16.0934 0 0
9:15 pm 21:15 Partly Cloudy 41 5 32 0.1 71 71 NNW 6 9 30.15 1021 10 16.0934 0 0
9:35 pm 21:35 Clear 42 5.6 32 0.1 68 68 NNW 12 19 30.18 1022 10 16.0934 0 0
9:55 pm 21:55 Clear 44 6.9 33 0.8 65 65 N 21 33 30.18 1022 10 16.0934 0 0
10:15 pm 22:15 Partly Cloudy 44 6.9 35 1.5 69 69 N 22 35 30.18 1022 10 16.0934 0 0
10:35 pm 22:35 Mostly Cloudy 44 6.5 35 1.5 71 71 N 20 31 30.21 1023 10 16.0934 0 0
10:55 pm 22:55 Cloudy 44 6.5 34 1.1 69 69 N 20 31 30.21 1023 10 16.0934 0 0
11:15 pm 23:15 Cloudy 43 6.2 32 0 65 65 N 20 31 30.24 1024 10 16.0934 0 0
11:35 pm 23:35 Cloudy 43 5.9 31 -0.6 63 63 N 17 28 30.24 1024 10 16.0934 0 0
11:55 pm 23:55 Cloudy 42 5.7 29 -1.6 60 60 N 17 28 30.27 1025 10 16.0934 0 0

Powered by AerisWeather